{"data":{"norad_id":43915,"intl_designator":"2018-112G","name":"YUNHAI-2 01F","alt_names":[],"object_type":"PAYLOAD","status":"ACTIVE","operator":null,"country":"PRC","launch_date":"2018-12-29","launch_site_code":"JSC","launch_vehicle":null,"mission":null,"orbit_class":"UNKNOWN","rcs_meters":null,"size_class":null,"mass_kg":null,"dimensions":null,"purposes":[],"wikipedia_slug":null,"has_3d_model":false,"image_url":null,"decayed_at":null,"tle_current":{"epoch":"2026-09-20T04:55:05.056032Z","epoch_age_seconds":83978,"freshness":"FRESH","line1":"1 43915U 18112G   26263.20491963 -.00000167  00000+0 -22426-5 0  9994","line2":"2 43915  50.0105 184.3039 0007185 302.9467  57.0757 14.29059351401897","mean_motion":14.29059351,"eccentricity":0.0007185,"inclination_deg":50.0105,"raan_deg":184.3039,"arg_perigee_deg":302.9467,"mean_anomaly_deg":57.0757,"bstar":-2.2426e-6,"rev_number":40189,"period_min":100.76558394809,"perigee_km":789.72294956196,"apogee_km":800.03057033501,"semimajor_km":7173.0137599485,"source":"CELESTRAK","updated_at":"2026-09-20T09:00:14.419091Z"}}}